Time,TemperatureF,DewpointF,PressureIn,WindDirection,WindDirectionDegrees,WindSpeedMPH,WindSpeedGustMPH,Humidity,HourlyPrecipIn,Conditions,Clouds,dailyrainin,SoftwareType,DateUTC
2013-02-03 00:00:00,32.4,31.6,29.97,SE,141,0.0,15.0,97,0.00,,,0.00,Wunderground v.1.15,2013-02-03 05:00:00,
2013-02-03 00:01:00,32.4,31.6,29.97,SE,141,0.0,15.0,97,0.00,,,0.00,Wunderground v.1.15,2013-02-03 05:01:00,
2013-02-03 00:02:00,32.4,31.4,29.97,SE,141,0.0,15.0,96,0.00,,,0.00,Wunderground v.1.15,2013-02-03 05:02:00,
2013-02-03 00:08:00,32.5,31.5,29.97,SE,141,0.0,15.0,96,0.00,,,0.00,Wunderground v.1.15,2013-02-03 05:08:00,
2013-02-03 00:09:00,32.5,31.5,29.97,SE,141,0.0,15.0,96,0.00,,,0.00,Wunderground v.1.15,2013-02-03 05:09:00,
2013-02-03 00:15:00,32.5,31.5,29.97,NW,320,1.0,15.0,96,0.00,,,0.00,Wunderground v.1.15,2013-02-03 05:15:00,
2013-02-03 00:20:00,32.6,31.3,29.97,NW,320,1.0,1.0,95,0.00,,,0.00,Wunderground v.1.15,2013-02-03 05:20:00,
2013-02-03 00:25:00,32.5,31.2,29.97,NW,320,0.0,15.0,95,0.00,,,0.00,Wunderground v.1.15,2013-02-03 05:25:00,
2013-02-03 00:30:00,32.4,31.1,29.96,NW,320,1.0,1.0,95,0.00,,,0.00,Wunderground v.1.15,2013-02-03 05:30:00,
2013-02-03 00:35:00,32.3,31.0,29.96,NW,320,1.0,15.0,95,0.00,,,0.00,Wunderground v.1.15,2013-02-03 05:35:00,
2013-02-03 00:40:00,32.2,30.9,29.96,NW,320,0.0,15.0,95,0.00,,,0.00,Wunderground v.1.15,2013-02-03 05:40:00,
2013-02-03 00:45:00,32.1,30.6,29.96,NW,320,0.0,15.0,94,0.00,,,0.00,Wunderground v.1.15,2013-02-03 05:45:00,
2013-02-03 00:50:00,32.1,30.6,29.96,NW,319,2.0,2.0,94,0.00,,,0.00,Wunderground v.1.15,2013-02-03 05:50:00,
2013-02-03 00:55:00,31.9,30.4,29.96,NNW,327,4.0,15.0,94,0.00,,,0.00,Wunderground v.1.15,2013-02-03 05:55:00,
2013-02-03 01:00:00,31.9,30.4,29.95,NW,323,5.0,15.0,94,0.00,,,0.00,Wunderground v.1.15,2013-02-03 06:00:00,
2013-02-03 01:05:00,31.7,30.2,29.95,NW,321,4.0,15.0,94,0.00,,,0.00,Wunderground v.1.15,2013-02-03 06:05:00,
2013-02-03 01:10:00,31.6,29.8,29.95,NNW,340,2.0,15.0,93,0.00,,,0.00,Wunderground v.1.15,2013-02-03 06:10:00,
2013-02-03 01:15:00,31.6,29.8,29.95,NNW,340,1.0,15.0,93,0.00,,,0.00,Wunderground v.1.15,2013-02-03 06:15:00,
2013-02-03 01:20:00,31.6,30.1,29.95,North,349,3.0,15.0,94,0.00,,,0.00,Wunderground v.1.15,2013-02-03 06:20:00,
2013-02-03 01:25:00,31.5,30.0,29.95,NNW,339,4.0,15.0,94,0.00,,,0.00,Wunderground v.1.15,2013-02-03 06:25:00,
2013-02-03 01:30:00,31.4,29.9,29.94,North,360,3.0,15.0,94,0.00,,,0.00,Wunderground v.1.15,2013-02-03 06:30:00,
2013-02-03 01:35:00,31.3,29.8,29.94,North,355,3.0,15.0,94,0.00,,,0.00,Wunderground v.1.15,2013-02-03 06:35:00,
2013-02-03 01:41:00,31.3,29.8,29.94,NE,44,4.0,15.0,94,0.00,,,0.00,Wunderground v.1.15,2013-02-03 06:41:00,
2013-02-03 01:46:00,31.2,29.4,29.93,WNW,297,3.0,15.0,93,0.00,,,0.00,Wunderground v.1.15,2013-02-03 06:46:00,
2013-02-03 01:51:00,31.1,29.0,29.93,North,5,4.0,15.0,92,0.00,,,0.00,Wunderground v.1.15,2013-02-03 06:51:00,
2013-02-03 01:56:00,31.2,28.6,29.93,NNE,12,5.0,15.0,90,0.00,,,0.00,Wunderground v.1.15,2013-02-03 06:56:00,
2013-02-03 02:01:00,31.2,28.6,29.93,NW,321,5.0,10.0,90,0.00,,,0.00,Wunderground v.1.15,2013-02-03 07:01:00,
2013-02-03 02:07:00,31.2,28.6,29.93,NNW,342,5.0,15.0,90,0.00,,,0.00,Wunderground v.1.15,2013-02-03 07:07:00,
2013-02-03 02:12:00,31.1,28.5,29.93,NNW,330,4.0,15.0,90,0.00,,,0.00,Wunderground v.1.15,2013-02-03 07:12:00,
2013-02-03 02:17:00,31.1,28.2,29.93,WNW,298,4.0,20.0,89,0.00,,,0.00,Wunderground v.1.15,2013-02-03 07:17:00,
2013-02-03 02:22:00,31.3,28.4,29.93,NW,313,5.0,10.0,89,0.00,,,0.00,Wunderground v.1.15,2013-02-03 07:22:00,
2013-02-03 02:27:00,31.3,28.4,29.93,NNW,340,6.0,15.0,89,0.00,,,0.00,Wunderground v.1.15,2013-02-03 07:27:00,
2013-02-03 02:32:00,31.2,28.1,29.93,North,360,6.0,15.0,88,0.00,,,0.00,Wunderground v.1.15,2013-02-03 07:32:00,
2013-02-03 02:37:00,31.2,28.1,29.93,NW,323,4.0,15.0,88,0.00,,,0.00,Wunderground v.1.15,2013-02-03 07:37:00,
2013-02-03 02:42:00,31.2,28.1,29.93,NNW,345,5.0,15.0,88,0.00,,,0.00,Wunderground v.1.15,2013-02-03 07:42:00,
2013-02-03 02:47:00,31.2,28.1,29.93,South,191,5.0,15.0,88,0.00,,,0.00,Wunderground v.1.15,2013-02-03 07:47:00,
2013-02-03 02:52:00,31.1,28.0,29.93,NW,323,4.0,12.0,88,0.00,,,0.00,Wunderground v.1.15,2013-02-03 07:52:00,
2013-02-03 02:58:00,31.2,27.8,29.93,NW,306,5.0,17.0,87,0.00,,,0.00,Wunderground v.1.15,2013-02-03 07:58:00,
2013-02-03 03:03:00,31.2,28.1,29.93,NNW,327,7.0,16.0,88,0.00,,,0.00,Wunderground v.1.15,2013-02-03 08:03:00,
2013-02-03 03:08:00,31.2,27.8,29.93,NW,314,9.0,16.0,87,0.00,,,0.00,Wunderground v.1.15,2013-02-03 08:08:00,
2013-02-03 03:13:00,31.2,27.8,29.93,SW,232,6.0,15.0,87,0.00,,,0.00,Wunderground v.1.15,2013-02-03 08:13:00,
2013-02-03 03:18:00,31.1,27.7,29.93,WNW,302,5.0,15.0,87,0.00,,,0.00,Wunderground v.1.15,2013-02-03 08:18:00,
2013-02-03 03:23:00,31.1,27.7,29.93,West,280,4.0,15.0,87,0.00,,,0.00,Wunderground v.1.15,2013-02-03 08:23:00,
2013-02-03 03:29:00,31.2,27.8,29.93,NW,306,4.0,15.0,87,0.00,,,0.00,Wunderground v.1.15,2013-02-03 08:29:00,
2013-02-03 03:34:00,31.3,27.9,29.93,WNW,303,7.0,15.0,87,0.00,,,0.00,Wunderground v.1.15,2013-02-03 08:34:00,
2013-02-03 03:40:00,31.3,27.6,29.93,NW,306,5.0,5.0,86,0.00,,,0.00,Wunderground v.1.15,2013-02-03 08:40:00,
2013-02-03 03:45:00,31.3,27.9,29.93,NW,313,4.0,15.0,87,0.00,,,0.00,Wunderground v.1.15,2013-02-03 08:45:00,
2013-02-03 03:50:00,31.4,28.0,29.93,NNW,333,8.0,8.0,87,0.00,,,0.00,Wunderground v.1.15,2013-02-03 08:50:00,
2013-02-03 03:55:00,31.5,27.8,29.93,NW,318,10.0,17.0,86,0.00,,,0.00,Wunderground v.1.15,2013-02-03 08:55:00,
2013-02-03 04:00:00,31.6,27.9,29.93,WNW,302,9.0,9.0,86,0.00,,,0.00,Wunderground v.1.15,2013-02-03 09:00:00,
2013-02-03 04:05:00,31.6,27.9,29.93,NW,304,5.0,15.0,86,0.00,,,0.00,Wunderground v.1.15,2013-02-03 09:05:00,
2013-02-03 04:10:00,31.5,27.8,29.93,WNW,303,5.0,15.0,86,0.00,,,0.00,Wunderground v.1.15,2013-02-03 09:10:00,
2013-02-03 04:15:00,31.5,27.8,29.92,NW,309,6.0,15.0,86,0.00,,,0.00,Wunderground v.1.15,2013-02-03 09:15:00,
2013-02-03 04:20:00,31.4,27.7,29.92,WNW,302,5.0,15.0,86,0.00,,,0.00,Wunderground v.1.15,2013-02-03 09:20:00,
2013-02-03 04:25:00,31.3,27.6,29.92,WNW,298,4.0,15.0,86,0.00,,,0.00,Wunderground v.1.15,2013-02-03 09:25:00,
2013-02-03 04:31:00,31.3,27.6,29.93,WNW,300,4.0,15.0,86,0.00,,,0.00,Wunderground v.1.15,2013-02-03 09:31:00,
2013-02-03 04:36:00,31.2,27.5,29.93,NW,308,4.0,15.0,86,0.00,,,0.00,Wunderground v.1.15,2013-02-03 09:36:00,
2013-02-03 04:41:00,31.2,27.8,29.93,NW,317,6.0,15.0,87,0.00,,,0.00,Wunderground v.1.15,2013-02-03 09:41:00,
2013-02-03 04:46:00,31.1,27.4,29.92,WNW,296,6.0,15.0,86,0.00,,,0.00,Wunderground v.1.15,2013-02-03 09:46:00,
2013-02-03 04:51:00,31.2,27.5,29.92,NW,325,6.0,15.0,86,0.00,,,0.00,Wunderground v.1.15,2013-02-03 09:51:00,
2013-02-03 04:56:00,31.2,27.8,29.92,NW,325,6.0,15.0,87,0.00,,,0.00,Wunderground v.1.15,2013-02-03 09:56:00,
2013-02-03 05:01:00,31.2,27.8,29.92,NW,325,3.0,15.0,87,0.00,,,0.00,Wunderground v.1.15,2013-02-03 10:01:00,
2013-02-03 05:06:00,31.2,27.5,29.92,NW,324,3.0,15.0,86,0.00,,,0.00,Wunderground v.1.15,2013-02-03 10:06:00,
2013-02-03 05:11:00,31.2,27.8,29.92,WNW,298,5.0,15.0,87,0.00,,,0.00,Wunderground v.1.15,2013-02-03 10:11:00,
2013-02-03 05:16:00,31.2,27.8,29.92,NW,315,7.0,15.0,87,0.00,,,0.00,Wunderground v.1.15,2013-02-03 10:16:00,
2013-02-03 05:22:00,31.2,27.8,29.92,NW,312,7.0,15.0,87,0.00,,,0.00,Wunderground v.1.15,2013-02-03 10:22:00,
2013-02-03 05:27:00,31.2,27.8,29.92,NW,306,8.0,15.0,87,0.00,,,0.00,Wunderground v.1.15,2013-02-03 10:27:00,
2013-02-03 05:32:00,31.2,27.8,29.92,NW,317,8.0,15.0,87,0.00,,,0.00,Wunderground v.1.15,2013-02-03 10:32:00,
2013-02-03 05:38:00,31.1,28.0,29.92,NW,318,8.0,15.0,88,0.00,,,0.00,Wunderground v.1.15,2013-02-03 10:38:00,
2013-02-03 05:43:00,30.9,27.5,29.91,NW,312,9.0,15.0,87,0.00,,,0.00,Wunderground v.1.15,2013-02-03 10:43:00,
2013-02-03 05:48:00,30.9,27.5,29.91,NW,309,10.0,15.0,87,0.00,,,0.00,Wunderground v.1.15,2013-02-03 10:48:00,
2013-02-03 05:53:00,30.9,27.5,29.91,NW,324,10.0,15.0,87,0.00,,,0.00,Wunderground v.1.15,2013-02-03 10:53:00,
2013-02-03 05:58:00,30.9,27.5,29.92,NW,313,11.0,15.0,87,0.00,,,0.00,Wunderground v.1.15,2013-02-03 10:58:00,
2013-02-03 06:03:00,30.8,27.4,29.92,NW,317,10.0,15.0,87,0.00,,,0.00,Wunderground v.1.15,2013-02-03 11:03:00,
2013-02-03 06:08:00,30.7,27.3,29.92,WNW,303,11.0,18.0,87,0.00,,,0.00,Wunderground v.1.15,2013-02-03 11:08:00,
2013-02-03 06:13:00,31.0,27.6,29.92,NW,315,14.0,20.0,87,0.00,,,0.00,Wunderground v.1.15,2013-02-03 11:13:00,
2013-02-03 06:19:00,31.1,27.4,29.92,NNW,334,14.0,20.0,86,0.00,,,0.00,Wunderground v.1.15,2013-02-03 11:19:00,
2013-02-03 06:24:00,31.1,27.7,29.92,NW,308,14.0,16.0,87,0.00,,,0.00,Wunderground v.1.15,2013-02-03 11:24:00,
2013-02-03 06:29:00,31.1,27.4,29.92,WNW,302,13.0,16.0,86,0.00,,,0.00,Wunderground v.1.15,2013-02-03 11:29:00,
2013-02-03 06:34:00,31.2,27.5,29.92,WNW,303,12.0,16.0,86,0.00,,,0.00,Wunderground v.1.15,2013-02-03 11:34:00,
2013-02-03 06:39:00,31.3,27.6,29.92,WNW,302,9.0,16.0,86,0.00,,,0.00,Wunderground v.1.15,2013-02-03 11:39:00,
2013-02-03 06:44:00,31.3,27.9,29.90,NW,315,8.0,15.0,87,0.00,,,0.00,Wunderground v.1.15,2013-02-03 11:44:00,
2013-02-03 06:49:00,31.4,27.7,29.90,WNW,297,12.0,18.0,86,0.00,,,0.00,Wunderground v.1.15,2013-02-03 11:49:00,
2013-02-03 06:54:00,31.4,27.7,29.90,NW,305,12.0,15.0,86,0.00,,,0.00,Wunderground v.1.15,2013-02-03 11:54:00,
2013-02-03 07:00:00,31.6,27.6,29.90,NW,319,10.0,15.0,85,0.00,,,0.00,Wunderground v.1.15,2013-02-03 12:00:00,
2013-02-03 07:05:00,31.7,27.7,29.90,NW,317,10.0,15.0,85,0.00,,,0.00,Wunderground v.1.15,2013-02-03 12:05:00,
2013-02-03 07:10:00,31.6,27.9,29.90,NW,313,9.0,9.0,86,0.00,,,0.00,Wunderground v.1.15,2013-02-03 12:10:00,
2013-02-03 07:15:00,31.4,27.4,29.90,NW,313,6.0,15.0,85,0.00,,,0.00,Wunderground v.1.15,2013-02-03 12:15:00,
2013-02-03 07:20:00,31.5,27.5,29.90,WNW,303,8.0,15.0,85,0.00,,,0.00,Wunderground v.1.15,2013-02-03 12:20:00,
2013-02-03 07:26:00,31.4,27.7,29.90,NW,315,10.0,15.0,86,0.00,,,0.00,Wunderground v.1.15,2013-02-03 12:26:00,
2013-02-03 07:31:00,31.5,27.8,29.88,NW,306,9.0,15.0,86,0.00,,,0.00,Wunderground v.1.15,2013-02-03 12:31:00,
2013-02-03 07:36:00,31.7,28.0,29.88,NW,305,9.0,15.0,86,0.00,,,0.00,Wunderground v.1.15,2013-02-03 12:36:00,
2013-02-03 07:42:00,31.7,28.3,29.89,NW,305,4.0,15.0,87,0.00,,,0.00,Wunderground v.1.15,2013-02-03 12:42:00,
2013-02-03 07:47:00,31.9,28.2,29.89,NW,305,2.0,15.0,86,0.00,,,0.00,Wunderground v.1.15,2013-02-03 12:47:00,
2013-02-03 07:52:00,32.1,28.1,29.89,NW,305,2.0,15.0,85,0.00,,,0.00,Wunderground v.1.15,2013-02-03 12:52:00,
2013-02-03 07:57:00,32.5,29.6,29.90,WNW,303,2.0,15.0,89,0.00,,,0.00,Wunderground v.1.15,2013-02-03 12:57:00,
2013-02-03 08:02:00,32.4,29.8,29.90,NW,312,7.0,15.0,90,0.00,,,0.00,Wunderground v.1.15,2013-02-03 13:02:00,
2013-02-03 08:07:00,32.2,29.9,29.90,NW,319,10.0,17.0,91,0.00,,,0.00,Wunderground v.1.15,2013-02-03 13:07:00,
2013-02-03 08:12:00,32.0,29.9,29.90,NW,317,8.0,15.0,92,0.00,,,0.00,Wunderground v.1.15,2013-02-03 13:12:00,
2013-02-03 08:17:00,31.7,29.6,29.90,NNW,329,7.0,15.0,92,0.00,,,0.00,Wunderground v.1.15,2013-02-03 13:17:00,
2013-02-03 08:23:00,31.5,29.7,29.90,WNW,302,9.0,15.0,93,0.00,,,0.00,Wunderground v.1.15,2013-02-03 13:23:00,
2013-02-03 08:28:00,31.4,29.9,29.90,WNW,300,5.0,15.0,94,0.00,,,0.00,Wunderground v.1.15,2013-02-03 13:28:00,
2013-02-03 08:33:00,31.5,30.2,29.90,WNW,300,2.0,15.0,95,0.00,,,0.00,Wunderground v.1.15,2013-02-03 13:33:00,
2013-02-03 08:38:00,31.6,30.6,29.90,NW,304,4.0,15.0,96,0.00,,,0.00,Wunderground v.1.15,2013-02-03 13:38:00,
2013-02-03 08:43:00,31.5,30.5,29.90,NW,304,4.0,15.0,96,0.00,,,0.00,Wunderground v.1.15,2013-02-03 13:43:00,
2013-02-03 08:49:00,31.6,30.6,29.90,NW,304,0.0,15.0,96,0.00,,,0.00,Wunderground v.1.15,2013-02-03 13:49:00,
2013-02-03 08:54:00,31.7,30.7,29.90,NW,304,1.0,15.0,96,0.00,,,0.00,Wunderground v.1.15,2013-02-03 13:54:00,
2013-02-03 08:59:00,31.8,30.8,29.90,NW,304,1.0,15.0,96,0.00,,,0.00,Wunderground v.1.15,2013-02-03 13:59:00,
2013-02-03 09:04:00,31.6,30.6,29.90,NW,304,1.0,15.0,96,0.00,,,0.00,Wunderground v.1.15,2013-02-03 14:04:00,
2013-02-03 09:10:00,31.6,30.6,29.90,NW,304,1.0,1.0,96,0.00,,,0.00,Wunderground v.1.15,2013-02-03 14:10:00,
2013-02-03 09:15:00,31.6,30.6,29.89,WSW,238,1.0,15.0,96,0.00,,,0.00,Wunderground v.1.15,2013-02-03 14:15:00,
2013-02-03 09:20:00,31.8,31.0,29.89,North,5,1.0,15.0,97,0.00,,,0.00,Wunderground v.1.15,2013-02-03 14:20:00,
2013-02-03 09:26:00,32.0,31.2,29.89,NW,310,4.0,16.0,97,0.00,,,0.00,Wunderground v.1.15,2013-02-03 14:26:00,
2013-02-03 09:31:00,32.2,31.4,29.89,NW,325,6.0,15.0,97,0.00,,,0.00,Wunderground v.1.15,2013-02-03 14:31:00,
2013-02-03 09:36:00,32.2,31.2,29.89,NW,313,6.0,15.0,96,0.00,,,0.00,Wunderground v.1.15,2013-02-03 14:36:00,
2013-02-03 09:42:00,32.3,31.3,29.89,NW,313,6.0,15.0,96,0.00,,,0.00,Wunderground v.1.15,2013-02-03 14:42:00,
2013-02-03 09:47:00,32.4,31.4,29.89,NW,313,4.0,15.0,96,0.00,,,0.00,Wunderground v.1.15,2013-02-03 14:47:00,
2013-02-03 09:53:00,32.6,31.6,29.89,NW,313,4.0,15.0,96,0.00,,,0.00,Wunderground v.1.15,2013-02-03 14:53:00,
2013-02-03 09:58:00,32.8,31.5,29.89,NW,313,4.0,15.0,95,0.00,,,0.00,Wunderground v.1.15,2013-02-03 14:58:00,
2013-02-03 10:03:00,33.0,31.7,29.89,NW,313,1.0,15.0,95,0.00,,,0.00,Wunderground v.1.15,2013-02-03 15:03:00,
2013-02-03 10:08:00,33.3,32.0,29.89,NW,313,1.0,15.0,95,0.00,,,0.00,Wunderground v.1.15,2013-02-03 15:08:00,
2013-02-03 10:14:00,33.6,32.1,29.88,NW,313,2.0,15.0,94,0.00,,,0.00,Wunderground v.1.15,2013-02-03 15:14:00,
2013-02-03 10:19:00,33.9,32.4,29.88,NW,313,2.0,15.0,94,0.00,,,0.00,Wunderground v.1.15,2013-02-03 15:19:00,
2013-02-03 10:24:00,34.3,32.5,29.88,WNW,300,3.0,15.0,93,0.00,,,0.00,Wunderground v.1.15,2013-02-03 15:24:00,
2013-02-03 10:30:00,34.9,32.8,29.89,East,82,4.0,4.0,92,0.00,,,0.00,Wunderground v.1.15,2013-02-03 15:30:00,
2013-02-03 10:35:00,35.3,33.2,29.89,East,82,2.0,15.0,92,0.00,,,0.00,Wunderground v.1.15,2013-02-03 15:35:00,
2013-02-03 10:40:00,35.7,33.6,29.89,NNW,330,2.0,15.0,92,0.00,,,0.00,Wunderground v.1.15,2013-02-03 15:40:00,
2013-02-03 10:45:00,36.2,34.1,29.88,NNE,21,5.0,15.0,92,0.00,,,0.00,Wunderground v.1.15,2013-02-03 15:45:00,
2013-02-03 10:51:00,37.1,33.6,29.88,ESE,102,4.0,15.0,87,0.00,,,0.00,Wunderground v.1.15,2013-02-03 15:51:00,
2013-02-03 10:56:00,38.0,33.9,29.88,NW,305,7.0,22.0,85,0.00,,,0.00,Wunderground v.1.15,2013-02-03 15:56:00,
2013-02-03 11:01:00,38.5,34.4,29.88,NNW,338,10.0,15.0,85,0.00,,,0.00,Wunderground v.1.15,2013-02-03 16:01:00,
2013-02-03 11:06:00,39.3,34.3,29.88,NW,315,9.0,18.0,82,0.00,,,0.00,Wunderground v.1.15,2013-02-03 16:06:00,
2013-02-03 11:12:00,40.3,35.5,29.88,NNE,15,7.0,15.0,83,0.00,,,0.00,Wunderground v.1.15,2013-02-03 16:12:00,
2013-02-03 11:17:00,40.7,34.4,29.88,NNW,341,7.0,16.0,78,0.19,,,0.02,Wunderground v.1.15,2013-02-03 16:17:00,
2013-02-03 11:23:00,40.6,34.3,29.88,North,9,8.0,15.0,78,0.33,,,0.04,Wunderground v.1.15,2013-02-03 16:23:00,
2013-02-03 11:28:00,40.9,33.6,29.88,WNW,302,8.0,15.0,75,0.26,,,0.06,Wunderground v.1.15,2013-02-03 16:28:00,
2013-02-03 11:33:00,40.9,32.6,29.88,NNW,332,9.0,19.0,72,0.40,,,0.09,Wunderground v.1.15,2013-02-03 16:33:00,
2013-02-03 11:38:00,40.8,33.5,29.88,SE,126,8.0,19.0,75,0.36,,,0.12,Wunderground v.1.15,2013-02-03 16:38:00,
2013-02-03 11:44:00,41.3,34.6,29.87,NNE,14,6.0,15.0,77,0.23,,,0.14,Wunderground v.1.15,2013-02-03 16:44:00,
2013-02-03 11:49:00,41.4,33.0,29.87,SSE,153,6.0,15.0,72,0.12,,,0.15,Wunderground v.1.15,2013-02-03 16:49:00,
2013-02-03 11:54:00,41.7,33.7,29.87,WNW,283,5.0,26.0,73,0.13,,,0.16,Wunderground v.1.15,2013-02-03 16:54:00,
2013-02-03 11:59:00,41.8,34.1,29.87,ENE,70,6.0,26.0,74,0.11,,,0.16,Wunderground v.1.15,2013-02-03 16:59:00,
2013-02-03 12:05:00,41.8,32.0,29.87,NE,56,7.0,15.0,68,0.09,,,0.17,Wunderground v.1.15,2013-02-03 17:05:00,
2013-02-03 12:10:00,41.9,34.6,29.87,ESE,111,5.0,18.0,75,0.11,,,0.18,Wunderground v.1.15,2013-02-03 17:10:00,
2013-02-03 12:15:00,41.8,35.1,29.87,ENE,63,5.0,18.0,77,0.06,,,0.18,Wunderground v.1.15,2013-02-03 17:15:00,
2013-02-03 12:20:00,42.4,32.2,29.87,SSE,155,5.0,5.0,67,0.04,,,0.18,Wunderground v.1.15,2013-02-03 17:20:00,
2013-02-03 12:26:00,42.4,32.2,29.87,West,277,5.0,16.0,67,0.00,,,0.19,Wunderground v.1.15,2013-02-03 17:26:00,
2013-02-03 12:31:00,42.0,31.1,29.86,NW,310,10.0,26.0,65,0.13,,,0.20,Wunderground v.1.15,2013-02-03 17:31:00,
2013-02-03 12:36:00,42.3,32.1,29.86,SE,131,10.0,26.0,67,0.06,,,0.20,Wunderground v.1.15,2013-02-03 17:36:00,
2013-02-03 12:41:00,42.6,31.7,29.86,NW,322,7.0,15.0,65,0.06,,,0.21,Wunderground v.1.15,2013-02-03 17:41:00,
2013-02-03 12:46:00,42.6,30.5,29.85,NW,318,7.0,16.0,62,0.08,,,0.22,Wunderground v.1.15,2013-02-03 17:46:00,
2013-02-03 12:51:00,42.9,31.2,29.85,NNW,338,10.0,15.0,63,0.08,,,0.22,Wunderground v.1.15,2013-02-03 17:51:00,
2013-02-03 12:56:00,42.9,30.8,29.85,NW,325,15.0,22.0,62,0.06,,,0.23,Wunderground v.1.15,2013-02-03 17:56:00,
2013-02-03 13:01:00,43.1,31.4,29.84,WNW,283,12.0,15.0,63,0.06,,,0.23,Wunderground v.1.15,2013-02-03 18:01:00,
2013-02-03 13:06:00,42.9,29.5,29.84,North,5,9.0,25.0,59,0.07,,,0.24,Wunderground v.1.15,2013-02-03 18:06:00,
2013-02-03 13:11:00,42.9,29.1,29.84,NW,324,16.0,40.0,58,0.07,,,0.24,Wunderground v.1.15,2013-02-03 18:11:00,
2013-02-03 13:16:00,42.8,29.0,29.83,WNW,288,17.0,40.0,58,0.04,,,0.24,Wunderground v.1.15,2013-02-03 18:16:00,
2013-02-03 13:21:00,42.6,29.7,29.83,North,10,15.0,17.0,60,0.04,,,0.25,Wunderground v.1.15,2013-02-03 18:21:00,
2013-02-03 13:27:00,42.9,29.1,29.83,NW,309,11.0,24.0,58,0.04,,,0.25,Wunderground v.1.15,2013-02-03 18:27:00,
2013-02-03 13:32:00,42.8,28.6,29.83,NE,40,9.0,15.0,57,0.05,,,0.26,Wunderground v.1.15,2013-02-03 18:32:00,
2013-02-03 13:37:00,43.4,29.2,29.83,North,355,7.0,15.0,57,0.05,,,0.26,Wunderground v.1.15,2013-02-03 18:37:00,
2013-02-03 13:43:00,43.4,28.7,29.82,NW,326,10.0,16.0,56,0.05,,,0.26,Wunderground v.1.15,2013-02-03 18:43:00,
2013-02-03 13:48:00,43.4,28.7,29.82,SW,233,12.0,24.0,56,0.00,,,0.26,Wunderground v.1.15,2013-02-03 18:48:00,
2013-02-03 13:53:00,43.6,28.0,29.82,NNW,342,13.0,25.0,54,0.00,,,0.26,Wunderground v.1.15,2013-02-03 18:53:00,
2013-02-03 13:59:00,43.6,28.0,29.82,NE,36,14.0,25.0,54,0.00,,,0.27,Wunderground v.1.15,2013-02-03 18:59:00,
2013-02-03 14:04:00,43.9,27.9,29.82,NE,42,9.0,15.0,53,0.00,,,0.27,Wunderground v.1.15,2013-02-03 19:04:00,
2013-02-03 14:09:00,43.9,28.3,29.82,East,94,11.0,29.0,54,0.00,,,0.27,Wunderground v.1.15,2013-02-03 19:09:00,
2013-02-03 14:14:00,44.0,27.0,29.82,ESE,105,11.0,15.0,51,0.00,,,0.28,Wunderground v.1.15,2013-02-03 19:14:00,
2013-02-03 14:19:00,43.8,26.8,29.82,WNW,287,8.0,15.0,51,0.00,,,0.28,Wunderground v.1.15,2013-02-03 19:19:00,
2013-02-03 14:24:00,43.8,26.3,29.82,North,9,10.0,18.0,50,0.00,,,0.28,Wunderground v.1.15,2013-02-03 19:24:00,
2013-02-03 14:29:00,43.3,26.4,29.83,WNW,288,12.0,28.0,51,0.00,,,0.28,Wunderground v.1.15,2013-02-03 19:29:00,
2013-02-03 14:34:00,43.4,26.0,29.83,SE,142,9.0,15.0,50,0.00,,,0.28,Wunderground v.1.15,2013-02-03 19:34:00,
2013-02-03 14:39:00,43.5,26.1,29.83,North,355,9.0,29.0,50,0.00,,,0.28,Wunderground v.1.15,2013-02-03 19:39:00,
2013-02-03 14:44:00,43.0,26.1,29.83,NNW,348,12.0,22.0,51,0.00,,,0.28,Wunderground v.1.15,2013-02-03 19:44:00,
2013-02-03 14:50:00,43.5,27.5,29.83,NNW,339,9.0,16.0,53,0.00,,,0.28,Wunderground v.1.15,2013-02-03 19:50:00,
2013-02-03 14:55:00,43.6,26.6,29.83,NNW,331,7.0,16.0,51,0.00,,,0.29,Wunderground v.1.15,2013-02-03 19:55:00,
2013-02-03 15:00:00,43.7,26.3,29.83,NW,320,8.0,8.0,50,0.00,,,0.29,Wunderground v.1.15,2013-02-03 20:00:00,
2013-02-03 15:05:00,43.8,28.7,29.83,ENE,65,7.0,15.0,55,0.00,,,0.29,Wunderground v.1.15,2013-02-03 20:05:00,
2013-02-03 15:10:00,44.0,28.9,29.83,NNW,347,5.0,5.0,55,0.00,,,0.29,Wunderground v.1.15,2013-02-03 20:10:00,
2013-02-03 15:15:00,44.3,29.1,29.83,NE,43,7.0,15.0,55,0.00,,,0.30,Wunderground v.1.15,2013-02-03 20:15:00,
2013-02-03 15:20:00,44.3,27.8,29.83,East,87,7.0,15.0,52,0.00,,,0.30,Wunderground v.1.15,2013-02-03 20:20:00,
2013-02-03 15:25:00,43.9,26.4,29.83,NW,321,8.0,18.0,50,0.00,,,0.30,Wunderground v.1.15,2013-02-03 20:25:00,
2013-02-03 15:31:00,43.2,26.3,29.85,SE,132,7.0,15.0,51,0.00,,,0.30,Wunderground v.1.15,2013-02-03 20:31:00,
2013-02-03 15:36:00,43.0,27.5,29.85,ESE,110,7.0,15.0,54,0.00,,,0.30,Wunderground v.1.15,2013-02-03 20:36:00,
2013-02-03 15:41:00,43.3,27.8,29.85,NE,49,7.0,15.0,54,0.00,,,0.30,Wunderground v.1.15,2013-02-03 20:41:00,
2013-02-03 15:46:00,43.6,28.9,29.85,NE,49,4.0,15.0,56,0.00,,,0.30,Wunderground v.1.15,2013-02-03 20:46:00,
2013-02-03 15:51:00,43.4,27.4,29.85,NE,38,4.0,15.0,53,0.00,,,0.30,Wunderground v.1.15,2013-02-03 20:51:00,
2013-02-03 15:56:00,43.3,27.3,29.85,ENE,59,5.0,15.0,53,0.00,,,0.30,Wunderground v.1.15,2013-02-03 20:56:00,
2013-02-03 16:02:00,43.2,30.2,29.86,ESE,102,5.0,18.0,60,0.00,,,0.31,Wunderground v.1.15,2013-02-03 21:02:00,
2013-02-03 16:07:00,42.8,27.7,29.86,WNW,284,8.0,18.0,55,0.00,,,0.31,Wunderground v.1.15,2013-02-03 21:07:00,
2013-02-03 16:12:00,42.6,29.7,29.86,NNE,15,8.0,15.0,60,0.00,,,0.31,Wunderground v.1.15,2013-02-03 21:12:00,
2013-02-03 16:17:00,42.3,27.7,29.86,NNE,21,7.0,15.0,56,0.00,,,0.31,Wunderground v.1.15,2013-02-03 21:17:00,
2013-02-03 16:22:00,41.8,29.3,29.86,NE,40,7.0,15.0,61,0.00,,,0.31,Wunderground v.1.15,2013-02-03 21:22:00,
2013-02-03 16:27:00,41.2,27.9,29.86,North,351,6.0,15.0,59,0.00,,,0.31,Wunderground v.1.15,2013-02-03 21:27:00,
2013-02-03 16:32:00,40.9,27.7,29.86,ENE,67,7.0,15.0,59,0.00,,,0.31,Wunderground v.1.15,2013-02-03 21:32:00,
2013-02-03 16:38:00,40.4,28.4,29.86,NNW,340,6.0,15.0,62,0.00,,,0.31,Wunderground v.1.15,2013-02-03 21:38:00,
2013-02-03 16:43:00,40.1,27.3,29.86,North,5,6.0,15.0,60,0.00,,,0.31,Wunderground v.1.15,2013-02-03 21:43:00,
2013-02-03 16:49:00,39.8,27.8,29.86,NNE,17,9.0,23.0,62,0.00,,,0.31,Wunderground v.1.15,2013-02-03 21:49:00,
2013-02-03 16:55:00,39.6,27.6,29.86,NNE,12,10.0,15.0,62,0.00,,,0.31,Wunderground v.1.15,2013-02-03 21:55:00,
2013-02-03 17:00:00,39.5,27.5,29.87,ENE,61,8.0,8.0,62,0.00,,,0.31,Wunderground v.1.15,2013-02-03 22:00:00,
2013-02-03 17:05:00,39.5,27.2,29.87,North,355,7.0,15.0,61,0.00,,,0.31,Wunderground v.1.15,2013-02-03 22:05:00,
2013-02-03 17:10:00,39.5,27.5,29.87,NNE,14,7.0,7.0,62,0.00,,,0.31,Wunderground v.1.15,2013-02-03 22:10:00,
2013-02-03 17:15:00,39.4,27.8,29.88,NE,34,10.0,19.0,63,0.00,,,0.31,Wunderground v.1.15,2013-02-03 22:15:00,
2013-02-03 17:20:00,39.3,27.7,29.88,NNE,20,11.0,11.0,63,0.00,,,0.31,Wunderground v.1.15,2013-02-03 22:20:00,
2013-02-03 17:26:00,39.4,27.8,29.88,NNW,327,8.0,15.0,63,0.00,,,0.31,Wunderground v.1.15,2013-02-03 22:26:00,
2013-02-03 17:31:00,39.2,26.9,29.88,SSW,202,8.0,15.0,61,0.00,,,0.31,Wunderground v.1.15,2013-02-03 22:31:00,
2013-02-03 17:37:00,39.1,26.8,29.88,WNW,287,13.0,27.0,61,0.00,,,0.31,Wunderground v.1.15,2013-02-03 22:37:00,
2013-02-03 17:42:00,38.9,26.6,29.88,NNW,340,17.0,22.0,61,0.00,,,0.31,Wunderground v.1.15,2013-02-03 22:42:00,
2013-02-03 17:47:00,38.7,26.8,29.88,WNW,296,15.0,22.0,62,0.00,,,0.31,Wunderground v.1.15,2013-02-03 22:47:00,
2013-02-03 17:52:00,38.6,27.1,29.88,NNW,344,12.0,15.0,63,0.00,,,0.31,Wunderground v.1.15,2013-02-03 22:52:00,
2013-02-03 17:57:00,38.3,26.8,29.88,NW,317,11.0,36.0,63,0.00,,,0.31,Wunderground v.1.15,2013-02-03 22:57:00,
2013-02-03 18:02:00,38.0,26.5,29.88,NNW,327,12.0,15.0,63,0.00,,,0.31,Wunderground v.1.15,2013-02-03 23:02:00,
2013-02-03 18:07:00,37.9,26.8,29.88,NW,309,11.0,15.0,64,0.00,,,0.31,Wunderground v.1.15,2013-02-03 23:07:00,
2013-02-03 18:12:00,37.7,26.6,29.88,NW,313,8.0,15.0,64,0.00,,,0.31,Wunderground v.1.15,2013-02-03 23:12:00,
2013-02-03 18:18:00,37.3,27.0,29.88,North,355,7.0,15.0,66,0.00,,,0.31,Wunderground v.1.15,2013-02-03 23:18:00,
2013-02-03 18:23:00,37.0,26.7,29.88,NNW,335,7.0,15.0,66,0.00,,,0.31,Wunderground v.1.15,2013-02-03 23:23:00,
2013-02-03 18:28:00,36.9,26.6,29.88,NW,317,4.0,15.0,66,0.00,,,0.31,Wunderground v.1.15,2013-02-03 23:28:00,
2013-02-03 18:33:00,36.8,26.5,29.88,NW,320,3.0,15.0,66,0.00,,,0.31,Wunderground v.1.15,2013-02-03 23:33:00,
2013-02-03 18:38:00,36.7,26.4,29.88,NW,319,3.0,15.0,66,0.00,,,0.31,Wunderground v.1.15,2013-02-03 23:38:00,
2013-02-03 18:43:00,36.6,26.3,29.89,NW,325,4.0,15.0,66,0.00,,,0.31,Wunderground v.1.15,2013-02-03 23:43:00,
2013-02-03 18:49:00,36.4,26.1,29.89,NW,325,3.0,15.0,66,0.00,,,0.31,Wunderground v.1.15,2013-02-03 23:49:00,
2013-02-03 18:54:00,36.2,25.9,29.89,NW,325,2.0,15.0,66,0.00,,,0.31,Wunderground v.1.15,2013-02-03 23:54:00,
2013-02-03 18:59:00,36.0,26.1,29.89,NW,325,2.0,15.0,67,0.00,,,0.31,Wunderground v.1.15,2013-02-03 23:59:00,
2013-02-03 19:04:00,35.8,25.9,29.89,NW,325,4.0,15.0,67,0.00,,,0.31,Wunderground v.1.15,2013-02-04 00:04:00,
2013-02-03 19:09:00,35.7,25.8,29.89,NW,311,6.0,15.0,67,0.00,,,0.31,Wunderground v.1.15,2013-02-04 00:09:00,
2013-02-03 19:15:00,35.5,26.0,29.91,WNW,298,9.0,15.0,68,0.00,,,0.31,Wunderground v.1.15,2013-02-04 00:15:00,
2013-02-03 19:20:00,35.3,26.1,29.91,NNW,339,12.0,24.0,69,0.00,,,0.31,Wunderground v.1.15,2013-02-04 00:20:00,
2013-02-03 19:25:00,35.2,26.4,29.91,NNW,342,15.0,24.0,70,0.00,,,0.31,Wunderground v.1.15,2013-02-04 00:25:00,
2013-02-03 19:31:00,35.0,26.5,29.91,WNW,302,18.0,22.0,71,0.00,,,0.31,Wunderground v.1.15,2013-02-04 00:31:00,
2013-02-03 19:36:00,35.0,26.5,29.91,NW,325,19.0,22.0,71,0.00,,,0.31,Wunderground v.1.15,2013-02-04 00:36:00,
2013-02-03 19:41:00,34.9,26.4,29.91,WNW,286,19.0,23.0,71,0.00,,,0.31,Wunderground v.1.15,2013-02-04 00:41:00,
2013-02-03 19:46:00,34.8,26.4,29.92,NW,315,18.0,24.0,71,0.00,,,0.31,Wunderground v.1.15,2013-02-04 00:46:00,
2013-02-03 19:51:00,34.7,26.3,29.92,NW,312,17.0,31.0,71,0.00,,,0.31,Wunderground v.1.15,2013-02-04 00:51:00,
2013-02-03 19:57:00,34.7,26.3,29.92,WNW,289,22.0,36.0,71,0.00,,,0.31,Wunderground v.1.15,2013-02-04 00:57:00,
2013-02-03 20:02:00,34.8,26.7,29.92,NW,316,26.0,40.0,72,0.00,,,0.31,Wunderground v.1.15,2013-02-04 01:02:00,
2013-02-03 20:07:00,34.6,26.5,29.92,WNW,282,26.0,40.0,72,0.00,,,0.31,Wunderground v.1.15,2013-02-04 01:07:00,
2013-02-03 20:12:00,34.3,26.5,29.93,NW,323,25.0,31.0,73,0.00,,,0.31,Wunderground v.1.15,2013-02-04 01:12:00,
2013-02-03 20:18:00,34.1,26.3,29.93,West,281,22.0,31.0,73,0.00,,,0.31,Wunderground v.1.15,2013-02-04 01:18:00,
2013-02-03 20:23:00,33.9,26.2,29.93,NW,306,21.0,29.0,73,0.00,,,0.31,Wunderground v.1.15,2013-02-04 01:23:00,
2013-02-03 20:28:00,33.7,26.3,29.93,NW,308,22.0,29.0,74,0.00,,,0.31,Wunderground v.1.15,2013-02-04 01:28:00,
2013-02-03 20:33:00,33.5,26.1,29.93,NW,310,22.0,31.0,74,0.00,,,0.31,Wunderground v.1.15,2013-02-04 01:33:00,
2013-02-03 20:39:00,33.4,26.0,29.93,WNW,303,21.0,31.0,74,0.00,,,0.31,Wunderground v.1.15,2013-02-04 01:39:00,
2013-02-03 20:44:00,33.3,25.6,29.93,NW,315,21.0,29.0,73,0.00,,,0.31,Wunderground v.1.15,2013-02-04 01:44:00,
2013-02-03 20:50:00,33.3,25.9,29.93,WNW,301,23.0,23.0,74,0.00,,,0.31,Wunderground v.1.15,2013-02-04 01:50:00,
2013-02-03 20:55:00,33.1,25.7,29.93,WNW,301,20.0,40.0,74,0.00,,,0.31,Wunderground v.1.15,2013-02-04 01:55:00,
2013-02-03 21:00:00,33.0,25.6,29.92,WNW,288,18.0,22.0,74,0.00,,,0.31,Wunderground v.1.15,2013-02-04 02:00:00,
2013-02-03 21:05:00,32.8,25.4,29.92,WNW,287,19.0,22.0,74,0.00,,,0.31,Wunderground v.1.15,2013-02-04 02:05:00,
2013-02-03 21:10:00,32.7,25.6,29.92,NW,309,18.0,19.0,75,0.00,,,0.31,Wunderground v.1.15,2013-02-04 02:10:00,
2013-02-03 21:15:00,32.5,25.8,29.92,NW,306,17.0,24.0,76,0.00,,,0.31,Wunderground v.1.15,2013-02-04 02:15:00,
2013-02-03 21:20:00,32.3,25.6,29.92,NW,305,15.0,15.0,76,0.00,,,0.31,Wunderground v.1.15,2013-02-04 02:20:00,
2013-02-03 21:25:00,32.2,25.5,29.92,NW,312,12.0,18.0,76,0.00,,,0.31,Wunderground v.1.15,2013-02-04 02:25:00,
2013-02-03 21:30:00,32.2,25.5,29.93,NW,316,12.0,12.0,76,0.00,,,0.31,Wunderground v.1.15,2013-02-04 02:30:00,
2013-02-03 21:35:00,32.1,25.4,29.93,WNW,296,10.0,15.0,76,0.00,,,0.31,Wunderground v.1.15,2013-02-04 02:35:00,
2013-02-03 21:41:00,32.1,25.4,29.93,NW,316,7.0,15.0,76,0.00,,,0.31,Wunderground v.1.15,2013-02-04 02:41:00,
2013-02-03 21:46:00,31.9,25.2,29.93,NNW,330,8.0,15.0,76,0.00,,,0.31,Wunderground v.1.15,2013-02-04 02:46:00,
2013-02-03 21:51:00,31.7,25.3,29.93,NW,311,7.0,15.0,77,0.00,,,0.31,Wunderground v.1.15,2013-02-04 02:51:00,
2013-02-03 21:56:00,31.5,25.1,29.93,NW,320,7.0,15.0,77,0.00,,,0.31,Wunderground v.1.15,2013-02-04 02:56:00,
2013-02-03 22:01:00,31.4,25.3,29.92,NW,311,10.0,15.0,78,0.00,,,0.31,Wunderground v.1.15,2013-02-04 03:01:00,
2013-02-03 22:06:00,31.2,25.4,29.92,NW,322,12.0,18.0,79,0.00,,,0.31,Wunderground v.1.15,2013-02-04 03:06:00,
2013-02-03 22:11:00,31.1,25.3,29.92,NW,311,15.0,22.0,79,0.00,,,0.31,Wunderground v.1.15,2013-02-04 03:11:00,
2013-02-03 22:17:00,31.0,25.2,29.92,NW,325,17.0,24.0,79,0.00,,,0.31,Wunderground v.1.15,2013-02-04 03:17:00,
2013-02-03 22:22:00,31.0,25.2,29.92,NW,305,19.0,21.0,79,0.00,,,0.31,Wunderground v.1.15,2013-02-04 03:22:00,
2013-02-03 22:28:00,31.0,25.6,29.92,NW,311,22.0,30.0,80,0.00,,,0.31,Wunderground v.1.15,2013-02-04 03:28:00,
2013-02-03 22:33:00,30.9,25.5,29.92,NW,307,22.0,28.0,80,0.00,,,0.31,Wunderground v.1.15,2013-02-04 03:33:00,
2013-02-03 22:38:00,30.8,25.4,29.92,NW,315,23.0,32.0,80,0.00,,,0.31,Wunderground v.1.15,2013-02-04 03:38:00,
2013-02-03 22:43:00,30.8,25.4,29.93,NW,304,21.0,24.0,80,0.00,,,0.31,Wunderground v.1.15,2013-02-04 03:43:00,
2013-02-03 22:48:00,30.7,25.3,29.93,NW,319,20.0,26.0,80,0.00,,,0.31,Wunderground v.1.15,2013-02-04 03:48:00,
2013-02-03 22:53:00,30.7,25.6,29.93,NW,311,22.0,31.0,81,0.00,,,0.31,Wunderground v.1.15,2013-02-04 03:53:00,
2013-02-03 22:59:00,30.7,25.6,29.92,NW,313,23.0,34.0,81,0.00,,,0.31,Wunderground v.1.15,2013-02-04 03:59:00,
2013-02-03 23:04:00,30.6,25.5,29.92,NW,313,23.0,27.0,81,0.00,,,0.31,Wunderground v.1.15,2013-02-04 04:04:00,
2013-02-03 23:09:00,30.6,25.5,29.92,WNW,298,24.0,37.0,81,0.00,,,0.31,Wunderground v.1.15,2013-02-04 04:09:00,
2013-02-03 23:14:00,30.5,25.4,29.92,WNW,303,25.0,41.0,81,0.00,,,0.31,Wunderground v.1.15,2013-02-04 04:14:00,
2013-02-03 23:19:00,30.5,25.4,29.92,NW,317,26.0,41.0,81,0.00,,,0.31,Wunderground v.1.15,2013-02-04 04:19:00,
2013-02-03 23:24:00,30.3,25.2,29.92,NW,321,23.0,32.0,81,0.00,,,0.31,Wunderground v.1.15,2013-02-04 04:24:00,
2013-02-03 23:29:00,30.2,25.1,29.93,NW,320,19.0,32.0,81,0.00,,,0.31,Wunderground v.1.15,2013-02-04 04:29:00,
2013-02-03 23:34:00,30.1,25.3,29.93,NNW,346,19.0,22.0,82,0.00,,,0.31,Wunderground v.1.15,2013-02-04 04:34:00,
2013-02-03 23:39:00,30.0,24.9,29.93,West,281,19.0,29.0,81,0.00,,,0.31,Wunderground v.1.15,2013-02-04 04:39:00,
2013-02-03 23:44:00,29.9,24.8,29.93,NW,313,21.0,24.0,81,0.00,,,0.31,Wunderground v.1.15,2013-02-04 04:44:00,
2013-02-03 23:50:00,29.9,24.8,29.93,NW,306,20.0,20.0,81,0.00,,,0.31,Wunderground v.1.15,2013-02-04 04:50:00,
2013-02-03 23:55:00,29.8,24.7,29.93,WNW,290,19.0,26.0,81,0.00,,,0.31,Wunderground v.1.15,2013-02-04 04:55:00,